M I D A S
Marine Information and Data Acquisition System
Tripno 552 of the Zeeleeuw from 2003-08-20 07:26:36 to 2003-08-20 14:04:50
Back to CruiseResearch ActivitiesStationsMapUnderway DataData graphs

EquipmentUnitsComments
TimeDGPSUTC
LatitudeDGPSDM.mWGS84
LongitudeDGPSDM.mWGS84
SpeedMeteo Stationm/sRelative wind speed
DirectionMeteo StationdegRelative wind direction
TemperatureMeteo Stationdeg CelciusAir temperature
PressureMeteo StationPaAtmospheric pressure
HumidityMeteo Station%Relative humidity
Missing or incorrect values are displayed as -999
Metereological data collected by the RV Zeeleeuw from 2003-08-20 07:26:36 to 2003-08-20 14:04:50
                                                                                    Next 1000 lines
Time Latitude Longitude Speed Direction Temperature Pressure Humidity
2003-08-20 07:26:44 51°11.45 2°46.14 6.1 351 18.5 102060 64
2003-08-20 07:26:50 51°11.45 2°46.11 6.1 352 18.5 102060 64
2003-08-20 07:26:54 51°11.44 2°46.1 6.5 353 18.5 102060 64
2003-08-20 07:27:00 51°11.43 2°46.07 6.7 357 18.5 102060 64
2003-08-20 07:27:06 51°11.43 2°46.04 7 355 18.5 102060 64
2003-08-20 07:27:10 51°11.42 2°46.02 7 355 18.5 102060 63
2003-08-20 07:27:14 51°11.41 2°46 7.3 357 18.5 102060 63
2003-08-20 07:27:20 51°11.4 2°45.97 7.5 354 18.5 102060 63
2003-08-20 07:27:26 51°11.39 2°45.94 7.1 357 18.5 102060 64
2003-08-20 07:27:30 51°11.39 2°45.92 7.4 354 18.5 102060 64
2003-08-20 07:27:34 51°11.38 2°45.9 7.7 1 18.5 102060 64
2003-08-20 07:27:40 51°11.37 2°45.87 8.1 356 18.5 102060 64
2003-08-20 07:27:46 51°11.36 2°45.84 7.8 358 18.5 102060 64
2003-08-20 07:27:50 51°11.36 2°45.82 7.7 353 18.5 102060 64
2003-08-20 07:27:54 51°11.35 2°45.8 7.6 357 18.5 102060 64
2003-08-20 07:28:00 51°11.34 2°45.76 7.9 354 18.5 102060 65
2003-08-20 07:28:06 51°11.33 2°45.73 7.7 354 18.5 102060 65
2003-08-20 07:28:10 51°11.33 2°45.71 7.4 357 18.5 102060 65
2003-08-20 07:28:14 51°11.32 2°45.69 7.7 355 18.5 102060 65
2003-08-20 07:28:20 51°11.31 2°45.66 7.4 356 18.5 102060 65
2003-08-20 07:28:24 51°11.3 2°45.64 7.8 357 18.5 102060 65
2003-08-20 07:28:30 51°11.29 2°45.61 7.7 357 18.5 102060 65
2003-08-20 07:28:34 51°11.29 2°45.59 7.9 354 18.5 102060 65
2003-08-20 07:28:40 51°11.28 2°45.55 7.7 357 18.5 102060 65
2003-08-20 07:28:44 51°11.27 2°45.53 7.9 358 18.5 102060 65
2003-08-20 07:28:50 51°11.26 2°45.5 7.8 359 18.5 102060 65
2003-08-20 07:28:54 51°11.26 2°45.48 7.9 354 18.5 102060 65
2003-08-20 07:29:00 51°11.25 2°45.45 7.8 355 18.5 102060 65
2003-08-20 07:29:04 51°11.24 2°45.43 7.7 354 18.5 102060 65
2003-08-20 07:29:10 51°11.23 2°45.39 8.1 355 18.5 102060 64
2003-08-20 07:29:14 51°11.22 2°45.37 8.2 357 18.5 102060 64
2003-08-20 07:29:20 51°11.21 2°45.34 8.1 357 18.5 102060 65
2003-08-20 07:29:26 51°11.2 2°45.31 8 356 18.5 102060 65
2003-08-20 07:29:30 51°11.2 2°45.29 8.2 355 18.5 102060 65
2003-08-20 07:29:34 51°11.19 2°45.27 8.5 359 18.5 102070 65
2003-08-20 07:29:40 51°11.18 2°45.23 7.9 355 18.5 102070 65
2003-08-20 07:29:44 51°11.18 2°45.21 7.8 356 18.5 102060 66
2003-08-20 07:29:50 51°11.17 2°45.18 8.5 355 18.5 102070 66
2003-08-20 07:29:54 51°11.16 2°45.16 8.1 356 18.5 102070 66
2003-08-20 07:30:00 51°11.15 2°45.13 8.3 358 18.5 102060 66
2003-08-20 07:30:04 51°11.14 2°45.11 7.9 357 18.5 102060 66
2003-08-20 07:30:10 51°11.13 2°45.08 8.1 358 18.5 102070 67
2003-08-20 07:30:14 51°11.13 2°45.06 8.2 358 18.5 102070 67
2003-08-20 07:30:20 51°11.12 2°45.02 7.9 360 18.5 102060 67
2003-08-20 07:30:26 51°11.11 2°44.99 8.1 359 18.5 102060 67
2003-08-20 07:30:30 51°11.1 2°44.97 8 356 18.5 102060 67
2003-08-20 07:30:34 51°11.1 2°44.95 7.8 358 18.5 102060 67
2003-08-20 07:30:40 51°11.09 2°44.92 7.9 357 18.5 102060 67
2003-08-20 07:30:44 51°11.08 2°44.9 7.9 358 18.5 102060 67
2003-08-20 07:30:50 51°11.07 2°44.86 7.6 358 18.4 102060 67
2003-08-20 07:30:54 51°11.06 2°44.84 7.9 357 18.4 102060 67
2003-08-20 07:31:00 51°11.05 2°44.81 7.8 357 18.4 102060 66
2003-08-20 07:31:06 51°11.04 2°44.78 7.9 356 18.4 102060 66
2003-08-20 07:31:10 51°11.04 2°44.76 8.3 355 18.4 102060 66
2003-08-20 07:31:14 51°11.03 2°44.74 8.2 359 18.4 102060 66
2003-08-20 07:31:20 51°11.02 2°44.71 8.4 355 18.4 102060 66
2003-08-20 07:31:26 51°11.01 2°44.67 8.3 357 18.4 102060 66
2003-08-20 07:31:30 51°11.01 2°44.65 8.2 357 18.4 102060 66
2003-08-20 07:31:34 51°11 2°44.63 7.4 354 18.4 102060 66
2003-08-20 07:31:40 51°10.99 2°44.6 8.1 360 18.4 102060 66
2003-08-20 07:31:46 51°10.98 2°44.57 8.1 355 18.4 102060 66
2003-08-20 07:31:50 51°10.97 2°44.55 8 356 18.4 102060 66
2003-08-20 07:31:54 51°10.97 2°44.52 7.9 354 18.4 102060 66
2003-08-20 07:32:00 51°10.96 2°44.49 7.9 357 18.4 102060 66
2003-08-20 07:32:06 51°10.95 2°44.46 7.9 355 18.4 102060 66
2003-08-20 07:32:10 51°10.94 2°44.44 7.9 357 18.4 102050 66
2003-08-20 07:32:14 51°10.94 2°44.42 7.4 356 18.4 102050 66
2003-08-20 07:32:20 51°10.93 2°44.38 7.6 352 18.4 102060 66
2003-08-20 07:32:24 51°10.92 2°44.36 7.8 359 18.4 102060 66
2003-08-20 07:32:30 51°10.92 2°44.33 8.4 353 18.4 102060 66
2003-08-20 07:32:34 51°10.91 2°44.31 8 355 18.4 102060 66
2003-08-20 07:32:40 51°10.9 2°44.27 7.9 354 18.4 102060 66
2003-08-20 07:32:44 51°10.9 2°44.25 7.7 356 18.4 102060 66
2003-08-20 07:32:50 51°10.89 2°44.22 7.6 349 18.4 102060 66
2003-08-20 07:32:54 51°10.89 2°44.19 7.8 351 18.4 102060 66
2003-08-20 07:33:00 51°10.88 2°44.16 7.6 352 18.4 102060 66
2003-08-20 07:33:04 51°10.87 2°44.14 8.1 353 18.4 102060 66
2003-08-20 07:33:10 51°10.87 2°44.1 8.1 352 18.4 102060 66
2003-08-20 07:33:14 51°10.86 2°44.08 7.3 355 18.4 102060 66
2003-08-20 07:33:20 51°10.86 2°44.05 7.5 351 18.4 102060 67
2003-08-20 07:33:26 51°10.85 2°44.01 8 353 18.4 102060 67
2003-08-20 07:33:30 51°10.84 2°43.99 8 352 18.4 102060 67
2003-08-20 07:33:34 51°10.84 2°43.97 7.6 352 18.4 102060 67
2003-08-20 07:33:40 51°10.83 2°43.94 7.8 351 18.4 102060 67
2003-08-20 07:33:44 51°10.83 2°43.91 8 356 18.4 102060 66
2003-08-20 07:33:50 51°10.82 2°43.88 7.8 355 18.4 102060 66
2003-08-20 07:33:54 51°10.81 2°43.86 7.7 355 18.4 102060 66
2003-08-20 07:34:00 51°10.81 2°43.82 7.7 355 18.3 102060 66
2003-08-20 07:34:06 51°10.8 2°43.79 7.8 352 18.3 102060 66
2003-08-20 07:34:10 51°10.8 2°43.77 8 354 18.4 102050 66
2003-08-20 07:34:14 51°10.8 2°43.74 7.8 354 18.4 102050 66
2003-08-20 07:34:20 51°10.79 2°43.71 8.1 352 18.4 102060 66
2003-08-20 07:34:26 51°10.79 2°43.67 7.9 353 18.4 102060 66
2003-08-20 07:34:30 51°10.78 2°43.65 7.9 352 18.4 102060 66
2003-08-20 07:34:34 51°10.78 2°43.63 7.8 354 18.4 102060 65
2003-08-20 07:34:40 51°10.77 2°43.59 7.5 352 18.4 102060 66
2003-08-20 07:34:44 51°10.77 2°43.57 7.8 355 18.4 102060 66
2003-08-20 07:34:50 51°10.77 2°43.54 7.9 353 18.4 102060 66
2003-08-20 07:34:54 51°10.76 2°43.51 7.6 354 18.4 102060 65
2003-08-20 07:35:00 51°10.76 2°43.48 7.1 354 18.4 102050 65
2003-08-20 07:35:06 51°10.76 2°43.44 6.8 348 18.4 102050 65
2003-08-20 07:35:10 51°10.76 2°43.42 6.8 348 18.4 102060 65
2003-08-20 07:35:14 51°10.76 2°43.39 6.2 348 18.4 102060 65
2003-08-20 07:35:20 51°10.77 2°43.36 6.8 349 18.4 102060 65
2003-08-20 07:35:24 51°10.77 2°43.34 6.8 350 18.4 102060 65
2003-08-20 07:35:30 51°10.78 2°43.3 6.2 352 18.4 102060 65
2003-08-20 07:35:34 51°10.78 2°43.28 6.2 351 18.4 102060 65
2003-08-20 07:35:40 51°10.79 2°43.25 6.6 353 18.4 102060 64
2003-08-20 07:35:44 51°10.79 2°43.22 6.3 350 18.4 102060 64
2003-08-20 07:35:50 51°10.8 2°43.19 6.2 354 18.4 102060 64
2003-08-20 07:35:54 51°10.81 2°43.17 6.3 356 18.4 102060 64
2003-08-20 07:36:00 51°10.82 2°43.14 6.6 353 18.4 102060 65
2003-08-20 07:36:04 51°10.82 2°43.11 6.6 353 18.4 102060 65
2003-08-20 07:36:10 51°10.83 2°43.08 4.4 354 18.4 102060 65
2003-08-20 07:36:14 51°10.84 2°43.06 6.9 355 18.4 102060 65
2003-08-20 07:36:20 51°10.84 2°43.03 6.9 353 18.5 102060 65
2003-08-20 07:36:26 51°10.85 2°42.99 6.9 350 18.5 102060 65
2003-08-20 07:36:30 51°10.86 2°42.97 6.5 352 18.5 102060 65
2003-08-20 07:36:34 51°10.86 2°42.95 6.7 354 18.5 102060 65
2003-08-20 07:36:40 51°10.87 2°42.91 6.8 354 18.5 102060 65
2003-08-20 07:36:44 51°10.87 2°42.89 6.8 352 18.5 102060 65
2003-08-20 07:36:50 51°10.88 2°42.86 6.9 353 18.5 102060 65
2003-08-20 07:36:54 51°10.89 2°42.84 6.9 352 18.5 102060 65
2003-08-20 07:37:00 51°10.89 2°42.8 7.1 351 18.5 102060 65
2003-08-20 07:37:04 51°10.9 2°42.78 6.9 355 18.5 102060 65
2003-08-20 07:37:10 51°10.91 2°42.75 6.8 352 18.5 102070 65
2003-08-20 07:37:14 51°10.91 2°42.72 7.3 353 18.5 102070 65
2003-08-20 07:37:20 51°10.92 2°42.69 7.2 351 18.5 102060 65
2003-08-20 07:37:26 51°10.92 2°42.65 7.1 351 18.5 102060 65
2003-08-20 07:37:30 51°10.93 2°42.63 6.9 354 18.5 102060 65
2003-08-20 07:37:34 51°10.93 2°42.61 7 353 18.5 102060 65
2003-08-20 07:37:40 51°10.94 2°42.58 7 353 18.5 102060 65
2003-08-20 07:37:44 51°10.94 2°42.55 7.4 351 18.6 102060 66
2003-08-20 07:37:50 51°10.95 2°42.52 7.6 353 18.6 102060 66
2003-08-20 07:37:54 51°10.95 2°42.49 7.1 350 18.6 102060 66
2003-08-20 07:38:00 51°10.96 2°42.46 7.2 354 18.6 102060 66
2003-08-20 07:38:06 51°10.96 2°42.43 7.5 351 18.6 102060 66
2003-08-20 07:38:10 51°10.97 2°42.4 7.2 352 18.6 102060 66
2003-08-20 07:38:14 51°10.97 2°42.38 7.3 351 18.6 102060 66
2003-08-20 07:38:20 51°10.98 2°42.35 7.1 353 18.6 102060 67
2003-08-20 07:38:26 51°10.98 2°42.31 7.3 353 18.6 102060 67
2003-08-20 07:38:30 51°10.98 2°42.29 7.2 352 18.6 102060 67
2003-08-20 07:38:34 51°10.99 2°42.27 7.2 351 18.6 102060 67
2003-08-20 07:38:40 51°10.99 2°42.23 7 352 18.6 102060 67
2003-08-20 07:38:46 51°11 2°42.2 6.9 351 18.6 102060 67
2003-08-20 07:38:50 51°11 2°42.18 6.8 349 18.6 102060 67
2003-08-20 07:38:54 51°11.01 2°42.15 7.3 351 18.7 102060 67
2003-08-20 07:39:00 51°11.01 2°42.12 7 352 18.6 102060 67
2003-08-20 07:39:04 51°11.02 2°42.1 7.4 350 18.6 102060 67
2003-08-20 07:39:10 51°11.02 2°42.06 7.8 354 18.6 102060 67
2003-08-20 07:39:14 51°11.03 2°42.04 7.4 355 18.6 102060 67
2003-08-20 07:39:20 51°11.03 2°42.01 7.7 353 18.6 102060 67
2003-08-20 07:39:24 51°11.03 2°41.98 7.6 352 18.6 102060 67
2003-08-20 07:39:30 51°11.03 2°41.95 7.4 355 18.6 102060 67
2003-08-20 07:39:34 51°11.03 2°41.92 7.6 353 18.6 102060 67
2003-08-20 07:39:40 51°11.03 2°41.89 7.4 355 18.7 102060 67
2003-08-20 07:39:46 51°11.02 2°41.86 7.7 355 18.7 102060 67
2003-08-20 07:39:50 51°11.02 2°41.84 8 355 18.7 102060 67
2003-08-20 07:39:54 51°11.01 2°41.82 7.9 357 18.7 102060 67
2003-08-20 07:40:00 51°11 2°41.78 7.8 355 18.6 102060 67
2003-08-20 07:40:06 51°10.99 2°41.75 8.1 360 18.6 102060 67
2003-08-20 07:40:10 51°10.98 2°41.74 8.1 356 18.6 102060 67
2003-08-20 07:40:14 51°10.98 2°41.72 8.3 356 18.6 102060 67
2003-08-20 07:40:20 51°10.97 2°41.69 8.3 356 18.6 102060 67
2003-08-20 07:40:26 51°10.95 2°41.66 8.2 356 18.6 102060 67
2003-08-20 07:40:30 51°10.94 2°41.64 8.1 357 18.6 102050 67
2003-08-20 07:40:34 51°10.94 2°41.62 7.9 356 18.6 102050 67
2003-08-20 07:40:40 51°10.92 2°41.6 7.8 357 18.6 102050 67
2003-08-20 07:40:44 51°10.91 2°41.58 7.7 359 18.6 102050 67
2003-08-20 07:40:50 51°10.9 2°41.55 8.1 357 18.6 102050 67
2003-08-20 07:40:54 51°10.89 2°41.53 8.1 357 18.6 102050 67
2003-08-20 07:41:00 51°10.87 2°41.51 8.2 356 18.6 102060 67
2003-08-20 07:41:06 51°10.86 2°41.48 8.4 358 18.6 102060 67
2003-08-20 07:41:10 51°10.85 2°41.46 8 358 18.6 102060 67
2003-08-20 07:41:14 51°10.84 2°41.45 8.4 359 18.6 102060 67
2003-08-20 07:41:20 51°10.83 2°41.42 8.4 357 18.6 102060 66
2003-08-20 07:41:26 51°10.81 2°41.39 8 355 18.6 102060 66
2003-08-20 07:41:30 51°10.81 2°41.37 8.1 358 18.6 102050 67
2003-08-20 07:41:34 51°10.8 2°41.36 8.4 356 18.6 102050 67
2003-08-20 07:41:40 51°10.78 2°41.33 8.4 359 18.6 102060 66
2003-08-20 07:41:44 51°10.77 2°41.31 7.9 358 18.6 102060 66
2003-08-20 07:41:50 51°10.76 2°41.28 8.5 355 18.6 102050 66
2003-08-20 07:41:54 51°10.75 2°41.26 8.1 357 18.6 102050 66
2003-08-20 07:42:00 51°10.74 2°41.24 7.6 359 18.6 102050 67
2003-08-20 07:42:06 51°10.72 2°41.21 7.8 356 18.6 102050 67
2003-08-20 07:42:10 51°10.71 2°41.19 8 356 18.6 102050 67
2003-08-20 07:42:14 51°10.7 2°41.17 7.7 356 18.6 102050 67
2003-08-20 07:42:20 51°10.69 2°41.15 8 357 18.6 102050 67
2003-08-20 07:42:26 51°10.68 2°41.12 7.5 356 18.6 102050 67
2003-08-20 07:42:30 51°10.67 2°41.1 7.5 354 18.6 102050 67
2003-08-20 07:42:34 51°10.66 2°41.09 7.8 357 18.6 102050 67
2003-08-20 07:42:40 51°10.64 2°41.06 7.9 354 18.6 102060 66
2003-08-20 07:42:46 51°10.63 2°41.03 8.2 356 18.6 102060 66
2003-08-20 07:42:50 51°10.62 2°41.01 7.9 355 18.6 102060 66
2003-08-20 07:42:54 51°10.61 2°41 8.1 357 18.6 102050 66
2003-08-20 07:43:00 51°10.59 2°40.97 8.2 359 18.6 102050 66
2003-08-20 07:43:06 51°10.58 2°40.94 8.3 357 18.6 102050 66
2003-08-20 07:43:10 51°10.57 2°40.92 8.1 360 18.6 102050 66
2003-08-20 07:43:14 51°10.56 2°40.91 8.1 358 18.6 102050 66
2003-08-20 07:43:20 51°10.55 2°40.88 8.2 358 18.6 102050 67
2003-08-20 07:43:26 51°10.53 2°40.85 8 359 18.6 102050 67
2003-08-20 07:43:30 51°10.52 2°40.84 8.1 358 18.6 102050 67
2003-08-20 07:43:34 51°10.51 2°40.82 8.1 360 18.6 102050 67
2003-08-20 07:43:40 51°10.5 2°40.79 7.9 356 18.6 102060 67
2003-08-20 07:43:44 51°10.49 2°40.77 8.1 358 18.6 102060 67
2003-08-20 07:43:50 51°10.47 2°40.75 8.1 1 18.6 102050 66
2003-08-20 07:43:54 51°10.46 2°40.73 8.4 358 18.6 102050 66
2003-08-20 07:44:00 51°10.45 2°40.7 8.1 357 18.6 102060 66
2003-08-20 07:44:04 51°10.44 2°40.68 8 359 18.6 102060 66
2003-08-20 07:44:10 51°10.43 2°40.66 7.9 358 18.6 102050 66
2003-08-20 07:44:14 51°10.42 2°40.64 7.9 359 18.6 102050 66
2003-08-20 07:44:20 51°10.4 2°40.61 8.4 359 18.6 102050 67
2003-08-20 07:44:26 51°10.39 2°40.59 8.4 2 18.6 102050 67
2003-08-20 07:44:30 51°10.38 2°40.57 8.1 1 18.6 102050 67
2003-08-20 07:44:34 51°10.37 2°40.55 8.2 1 18.6 102050 67
2003-08-20 07:44:40 51°10.35 2°40.52 8.3 2 18.6 102050 67
2003-08-20 07:44:44 51°10.34 2°40.51 8   18.6 102060 67
2003-08-20 07:44:50 51°10.33 2°40.48 7.9   18.6 102050 67
2003-08-20 07:44:54 51°10.32 2°40.46 8.1 1 18.6 102050 67
2003-08-20 07:45:00 51°10.31 2°40.44 8.2 3 18.6 102050 67
2003-08-20 07:45:06 51°10.29 2°40.41 8 3 18.6 102050 67
2003-08-20 07:45:10 51°10.28 2°40.39 8.1 3 18.6 102060 66
2003-08-20 07:45:14 51°10.27 2°40.37 7.8 4 18.6 102060 66
2003-08-20 07:45:20 51°10.26 2°40.35 8.2 359 18.6 102060 66
2003-08-20 07:45:26 51°10.24 2°40.32 7.8 359 18.6 102060 66
2003-08-20 07:45:30 51°10.23 2°40.3 8.3 1 18.5 102050 66
2003-08-20 07:45:34 51°10.22 2°40.28 8.2 1 18.5 102050 66
2003-08-20 07:45:40 51°10.21 2°40.26 8.2 359 18.5 102050 66
2003-08-20 07:45:46 51°10.2 2°40.23 8 1 18.5 102050 66
2003-08-20 07:45:50 51°10.19 2°40.21 7.7 2 18.5 102060 66
2003-08-20 07:45:54 51°10.18 2°40.19 7.9 2 18.5 102060 66
2003-08-20 07:46:00 51°10.16 2°40.17 7.9 1 18.5 102060 66
2003-08-20 07:46:06 51°10.15 2°40.14 7.7   18.5 102060 66
2003-08-20 07:46:10 51°10.14 2°40.12 7.9 359 18.6 102050 66
2003-08-20 07:46:14 51°10.13 2°40.1 8.4 1 18.6 102050 66
2003-08-20 07:46:20 51°10.11 2°40.08 8.2 3 18.5 102060 66
2003-08-20 07:46:26 51°10.1 2°40.05 8.1 5 18.5 102060 66
2003-08-20 07:46:30 51°10.09 2°40.03 8.2 2 18.6 102060 66
2003-08-20 07:46:34 51°10.08 2°40.02 8.3 2 18.6 102060 66
2003-08-20 07:46:40 51°10.06 2°39.99 8.4 2 18.6 102060 66
2003-08-20 07:46:44 51°10.05 2°39.97 8.5   18.6 102060 66
2003-08-20 07:46:50 51°10.04 2°39.94 8.4 4 18.6 102050 66
2003-08-20 07:46:54 51°10.03 2°39.92 8.5   18.6 102050 66
2003-08-20 07:47:00 51°10.02 2°39.9 8.1 1 18.6 102060 66
2003-08-20 07:47:04 51°10.01 2°39.88 8.1 1 18.6 102060 66
2003-08-20 07:47:10 51°9.99 2°39.85 8.2 2 18.6 102060 65
2003-08-20 07:47:14 51°9.98 2°39.83 7.7 360 18.6 102060 65
2003-08-20 07:47:20 51°9.97 2°39.81 8.5 2 18.6 102060 65
2003-08-20 07:47:26 51°9.95 2°39.78 7.9 360 18.6 102060 65
2003-08-20 07:47:30 51°9.94 2°39.76 8.3 2 18.6 102060 65
2003-08-20 07:47:34 51°9.93 2°39.74 8.3 4 18.6 102060 65
2003-08-20 07:47:40 51°9.92 2°39.71 8.1   18.6 102060 66
2003-08-20 07:47:44 51°9.91 2°39.69 8.1 3 18.6 102060 66
2003-08-20 07:47:50 51°9.9 2°39.67 8.3 1 18.6 102060 65
2003-08-20 07:47:54 51°9.89 2°39.65 8.2 2 18.6 102060 65
2003-08-20 07:48:00 51°9.88 2°39.62 8.3 2 18.6 102060 65
2003-08-20 07:48:04 51°9.87 2°39.6 7.9 4 18.6 102060 65
2003-08-20 07:48:10 51°9.86 2°39.57 8.1 4 18.6 102060 65
2003-08-20 07:48:14 51°9.85 2°39.55 8.3 2 18.6 102060 65
2003-08-20 07:48:20 51°9.83 2°39.52 8.3 358 18.6 102060 65
2003-08-20 07:48:26 51°9.82 2°39.49 7.9 2 18.6 102060 65
2003-08-20 07:48:30 51°9.82 2°39.47 8.3 359 18.6 102060 65
2003-08-20 07:48:34 51°9.81 2°39.45 8.2 359 18.6 102060 65
2003-08-20 07:48:40 51°9.8 2°39.42 8 358 18.6 102060 65
2003-08-20 07:48:44 51°9.79 2°39.4 8.2 4 18.6 102060 65
2003-08-20 07:48:50 51°9.79 2°39.36 7.7 357 18.6 102060 65
2003-08-20 07:48:54 51°9.78 2°39.34 8.2 357 18.6 102060 65
2003-08-20 07:49:00 51°9.78 2°39.3 8 357 18.6 102060 65
2003-08-20 07:49:06 51°9.77 2°39.27 8 357 18.6 102060 65
2003-08-20 07:49:10 51°9.77 2°39.25 7.6 356 18.6 102060 65
2003-08-20 07:49:14 51°9.77 2°39.22 7.8 357 18.6 102060 65
2003-08-20 07:49:20 51°9.77 2°39.19 8 358 18.6 102060 66
2003-08-20 07:49:26 51°9.77 2°39.15 7.4 354 18.6 102060 66
2003-08-20 07:49:30 51°9.77 2°39.13 7.5 355 18.6 102060 65
2003-08-20 07:49:34 51°9.78 2°39.11 7.5 355 18.6 102060 65
2003-08-20 07:49:40 51°9.78 2°39.07 7.6 358 18.6 102060 66
2003-08-20 07:49:46 51°9.79 2°39.04 7.4 356 18.6 102060 66
2003-08-20 07:49:50 51°9.79 2°39.01 7.3 359 18.6 102060 66
2003-08-20 07:49:54 51°9.8 2°38.99 7.2 355 18.6 102060 66
2003-08-20 07:50:00 51°9.8 2°38.96 7.1 358 18.7 102060 66
2003-08-20 07:50:06 51°9.81 2°38.93 7.1 355 18.7 102060 66
2003-08-20 07:50:10 51°9.82 2°38.91 7.4 356 18.7 102060 66
2003-08-20 07:50:14 51°9.83 2°38.89 7.1 351 18.7 102060 66
2003-08-20 07:50:20 51°9.84 2°38.85 6.9 356 18.7 102060 66
2003-08-20 07:50:24 51°9.85 2°38.83 7.2 354 18.7 102060 66
2003-08-20 07:50:30 51°9.86 2°38.8 7.2 357 18.7 102060 66
2003-08-20 07:50:34 51°9.87 2°38.78 6.7 353 18.7 102060 66
2003-08-20 07:50:40 51°9.88 2°38.75 7.1 355 18.7 102060 66
2003-08-20 07:50:44 51°9.89 2°38.73 7.1 356 18.7 102060 66
2003-08-20 07:50:50 51°9.9 2°38.7 7.1 356 18.7 102060 66
2003-08-20 07:50:54 51°9.91 2°38.68 7.6 355 18.7 102060 66
2003-08-20 07:51:00 51°9.92 2°38.65 7.4 356 18.7 102060 66
2003-08-20 07:51:04 51°9.93 2°38.63 7.4 355 18.7 102060 66
2003-08-20 07:51:10 51°9.94 2°38.6 7.1 358 18.8 102060 66
2003-08-20 07:51:14 51°9.95 2°38.58 6.8 355 18.8 102060 66
2003-08-20 07:51:20 51°9.96 2°38.55 6.8 355 18.8 102060 66
2003-08-20 07:51:26 51°9.98 2°38.52 7.3 359 18.8 102060 66
2003-08-20 07:51:30 51°9.99 2°38.5 7.2 2 18.8 102060 66
2003-08-20 07:51:34 51°9.99 2°38.48 7.2 3 18.8 102060 66
2003-08-20 07:51:40 51°10.01 2°38.45 7.2   18.8 102060 67
2003-08-20 07:51:44 51°10.02 2°38.43 7 357 18.8 102060 67
2003-08-20 07:51:50 51°10.03 2°38.4 7.5 4 18.8 102060 66
2003-08-20 07:51:54 51°10.04 2°38.38 7.3 5 18.8 102060 66
2003-08-20 07:52:00 51°10.05 2°38.35 7.6 2 18.8 102060 66
2003-08-20 07:52:04 51°10.06 2°38.33 7.2 358 18.8 102060 66
2003-08-20 07:52:10 51°10.07 2°38.3 7.4 5 18.8 102060 67
2003-08-20 07:52:14 51°10.08 2°38.28 7.3   18.8 102060 67
2003-08-20 07:52:20 51°10.08 2°38.25 7.2 3 18.8 102060 66
2003-08-20 07:52:26 51°10.09 2°38.21 8 3 18.8 102060 66
2003-08-20 07:52:30 51°10.09 2°38.19 7 5 18.8 102070 65
2003-08-20 07:52:34 51°10.1 2°38.17 6.7 4 18.8 102070 65
2003-08-20 07:52:40 51°10.1 2°38.13 6.9 4 18.8 102070 65
2003-08-20 07:52:44 51°10.1 2°38.11 6.6 5 18.8 102060 65
2003-08-20 07:52:50 51°10.1 2°38.07 6.5 2 18.8 102060 64
2003-08-20 07:52:54 51°10.1 2°38.05 7.6   18.8 102060 64
2003-08-20 07:53:00 51°10.09 2°38.02 7.3   18.8 102060 63
2003-08-20 07:53:06 51°10.09 2°37.98 7.4 3 18.8 102060 63
2003-08-20 07:53:10 51°10.08 2°37.96 7.3 1 18.8 102060 62
2003-08-20 07:53:14 51°10.08 2°37.94 7.8 360 18.8 102060 62
2003-08-20 07:53:20 51°10.07 2°37.91 7.4 2 18.9 102070 63
2003-08-20 07:53:26 51°10.06 2°37.88 8.1 6 18.9 102070 63
2003-08-20 07:53:30 51°10.05 2°37.86 7.7 5 18.9 102060 63
2003-08-20 07:53:34 51°10.04 2°37.83 8 2 18.9 102060 63
2003-08-20 07:53:40 51°10.03 2°37.8 8.1 7 18.9 102060 63
2003-08-20 07:53:46 51°10.02 2°37.77 7.9 6 18.9 102060 63
2003-08-20 07:53:50 51°10.01 2°37.75 7.6 5 18.9 102060 63
2003-08-20 07:53:54 51°10 2°37.73 7.1 6 18.9 102060 63
2003-08-20 07:54:00 51°9.99 2°37.7 7.6 4 18.9 102060 63
2003-08-20 07:54:06 51°9.98 2°37.68 7.3 3 18.9 102060 63
2003-08-20 07:54:10 51°9.97 2°37.66 7.6 4 18.9 102060 62
2003-08-20 07:54:14 51°9.96 2°37.64 7.9 7 18.9 102060 62
2003-08-20 07:54:20 51°9.95 2°37.61 7.8 9 18.9 102070 62
2003-08-20 07:54:24 51°9.94 2°37.59 7.7 7 18.9 102070 62
2003-08-20 07:54:30 51°9.93 2°37.56 7.6 10 18.9 102060 61
2003-08-20 07:54:34 51°9.92 2°37.54 7.5 7 18.9 102060 61
2003-08-20 07:54:40 51°9.91 2°37.51 7.4 11 18.9 102060 60
2003-08-20 07:54:44 51°9.9 2°37.49 7 8 18.9 102060 60
2003-08-20 07:54:50 51°9.88 2°37.46 7.2 9 18.9 102070 60
2003-08-20 07:54:54 51°9.87 2°37.45 7.3 6 18.9 102070 60
2003-08-20 07:55:00 51°9.86 2°37.42 7.4 6 19 102070 59
2003-08-20 07:55:04 51°9.85 2°37.4 7.4 6 19 102070 59
2003-08-20 07:55:10 51°9.83 2°37.37 7.4 9 19 102070 59
2003-08-20 07:55:14 51°9.83 2°37.36 7 360 19 102070 59
2003-08-20 07:55:20 51°9.81 2°37.33 6.8 4 19 102070 59
2003-08-20 07:55:26 51°9.8 2°37.3 7.3 4 19 102070 59
2003-08-20 07:55:30 51°9.79 2°37.28 7.6 4 19 102070 59
2003-08-20 07:55:34 51°9.78 2°37.26 7.5 7 19 102070 59
2003-08-20 07:55:40 51°9.76 2°37.24 7.6 3 19 102070 59
2003-08-20 07:55:44 51°9.75 2°37.22 7.5 6 19 102060 59
2003-08-20 07:55:50 51°9.74 2°37.19 7.5 4 19.1 102070 59
2003-08-20 07:55:54 51°9.73 2°37.17 8 1 19.1 102070 59
2003-08-20 07:56:00 51°9.72 2°37.15 8 4 19.1 102070 59
2003-08-20 07:56:06 51°9.7 2°37.12 8 3 19.1 102070 59
2003-08-20 07:56:10 51°9.69 2°37.1 7.8 3 19.1 102070 59
2003-08-20 07:56:14 51°9.68 2°37.08 7.9 3 19.1 102070 59
2003-08-20 07:56:20 51°9.67 2°37.05 7.7   19.1 102070 60
2003-08-20 07:56:26 51°9.65 2°37.03 7.9 360 19.1 102070 60
2003-08-20 07:56:30 51°9.64 2°37.01 7.8   19.1 102070 59
2003-08-20 07:56:34 51°9.63 2°36.99 7.5 2 19.1 102070 59
2003-08-20 07:56:40 51°9.62 2°36.96 8.2 1 19.1 102070 59
2003-08-20 07:56:46 51°9.61 2°36.94 8.2 2 19.1 102070 59
2003-08-20 07:56:50 51°9.6 2°36.92 8.3 2 19.1 102070 58
2003-08-20 07:56:54 51°9.59 2°36.9 8.3 2 19.1 102070 58
2003-08-20 07:57:00 51°9.57 2°36.87 7.8 4 19.1 102070 59
2003-08-20 07:57:06 51°9.56 2°36.84 7.5 4 19.1 102070 59
2003-08-20 07:57:10 51°9.55 2°36.82 7.2 2 19.1 102070 60
2003-08-20 07:57:14 51°9.54 2°36.81 7.7 360 19.1 102070 60
2003-08-20 07:57:20 51°9.53 2°36.78 8.1 3 19.2 102060 60
2003-08-20 07:57:26 51°9.51 2°36.75 7.8 8 19.2 102060 60
2003-08-20 07:57:30 51°9.5 2°36.73 7.8 5 19.2 102070 60
2003-08-20 07:57:34 51°9.49 2°36.71 7.6 8 19.2 102070 60
2003-08-20 07:57:40 51°9.48 2°36.69 7.9 5 19.2 102070 61
2003-08-20 07:57:44 51°9.47 2°36.67 7.9 7 19.2 102070 61
2003-08-20 07:57:50 51°9.46 2°36.64 8.1 6 19.2 102070 60
2003-08-20 07:57:54 51°9.45 2°36.62 8.3 8 19.2 102070 60
2003-08-20 07:58:00 51°9.43 2°36.59 8.3 11 19.2 102070 60
2003-08-20 07:58:04 51°9.42 2°36.58 8.2 9 19.2 102070 60
2003-08-20 07:58:10 51°9.41 2°36.55 7.9 9 19.2 102070 59
2003-08-20 07:58:14 51°9.4 2°36.53 8 9 19.2 102070 59
2003-08-20 07:58:20 51°9.39 2°36.5 7.7 9 19.1 102070 59
2003-08-20 07:58:26 51°9.37 2°36.47 7.8 9 19.1 102070 59
2003-08-20 07:58:30 51°9.37 2°36.45 7.5 7 19.1 102070 59
2003-08-20 07:58:34 51°9.36 2°36.43 7.6 7 19.1 102070 59
2003-08-20 07:58:40 51°9.35 2°36.4 8.1 5 19.2 102070 59
2003-08-20 07:58:44 51°9.34 2°36.38 7.4 6 19.2 102070 59
2003-08-20 07:58:50 51°9.33 2°36.35 7.3 3 19.2 102070 58
2003-08-20 07:58:54 51°9.33 2°36.32 7.1 6 19.2 102070 58
2003-08-20 07:59:00 51°9.32 2°36.29 7.5 6 19.2 102080 58
2003-08-20 07:59:06 51°9.32 2°36.26 7.6 5 19.2 102080 58
2003-08-20 07:59:10 51°9.31 2°36.23 7.4 4 19.2 102070 59
2003-08-20 07:59:14 51°9.31 2°36.21 7.4 5 19.2 102070 59
2003-08-20 07:59:20 51°9.3 2°36.18 7.3 11 19.2 102080 59
2003-08-20 07:59:26 51°9.29 2°36.14 7.4 14 19.2 102080 59
2003-08-20 07:59:30 51°9.29 2°36.12 7.6 15 19.2 102080 59
2003-08-20 07:59:34 51°9.29 2°36.1 7.4 14 19.2 102080 59
2003-08-20 07:59:40 51°9.28 2°36.06 7 11 19.2 102080 59
2003-08-20 07:59:44 51°9.28 2°36.04 6.7 10 19.2 102080 58
2003-08-20 07:59:50 51°9.28 2°36.01 5.9 12 19.2 102080 58
2003-08-20 07:59:54 51°9.28 2°36 5.7 9 19.2 102080 58
2003-08-20 08:00:00 51°9.28 2°35.97 5.4 10 19.2 102080 63
2003-08-20 08:00:06 51°9.28 2°35.95 5.1 5 19.2 102080 63
2003-08-20 08:00:10 51°9.28 2°35.93 4.8 3 19.2 102090 65
2003-08-20 08:00:14 51°9.28 2°35.92 4.4   19.2 102090 65
2003-08-20 08:00:20 51°9.28 2°35.9 4.1 6 19.2 102080 65
2003-08-20 08:00:26 51°9.29 2°35.88 4 8 19.2 102080 65
2003-08-20 08:00:30 51°9.29 2°35.87 4.3 4 19.2 102090 62
2003-08-20 08:00:34 51°9.29 2°35.86 4.1 7 19.2 102090 62
2003-08-20 08:00:40 51°9.3 2°35.85 3.8 10 19.2 102090 58
2003-08-20 08:00:46 51°9.3 2°35.84 3.5 10 19.2 102090 58
2003-08-20 08:00:50 51°9.31 2°35.83 3.4 14 19.2 102090 57
2003-08-20 08:00:54 51°9.31 2°35.82 3.1 12 19.2 102090 57
2003-08-20 08:01:00 51°9.31 2°35.81 3.2 9 19.2 102090 57
2003-08-20 08:01:04 51°9.32 2°35.8 3.1 8 19.2 102090 57
2003-08-20 08:01:10 51°9.32 2°35.79 2.9 12 19.2 102080 57
2003-08-20 08:01:14 51°9.32 2°35.78 2.6 9 19.2 102080 57
2003-08-20 08:01:20 51°9.33 2°35.78 2.1 11 19.3 102090 56
2003-08-20 08:01:24 51°9.33 2°35.77 2 4 19.3 102090 56
2003-08-20 08:01:30 51°9.33 2°35.77 1.6 5 19.3 102090 56
2003-08-20 08:01:34 51°9.33 2°35.76 1.4 8 19.3 102090 56
2003-08-20 08:01:40 51°9.34 2°35.76 1.5 6 19.3 102090 56
2003-08-20 08:01:46 51°9.34 2°35.76 1.4 360 19.3 102090 56
2003-08-20 08:01:50 51°9.34 2°35.76 1.7 356 19.3 102090 56
2003-08-20 08:01:54 51°9.34 2°35.76 1.6 348 19.3 102090 56
2003-08-20 08:02:00 51°9.34 2°35.75 1.7 342 19.3 102090 56
2003-08-20 08:02:06 51°9.35 2°35.75 1.7 338 19.3 102090 56
2003-08-20 08:02:10 51°9.35 2°35.75 1.5 338 19.4 102090 57
2003-08-20 08:02:14 51°9.35 2°35.75 1.6 337 19.4 102090 57
2003-08-20 08:02:20 51°9.35 2°35.75 1.8 327 19.4 102090 56
2003-08-20 08:02:26 51°9.35 2°35.75 1.9 326 19.4 102090 56
2003-08-20 08:02:30 51°9.35 2°35.75 1.7 331 19.4 102090 56
2003-08-20 08:02:34 51°9.36 2°35.75 1.8 326 19.4 102090 56
2003-08-20 08:02:40 51°9.36 2°35.75 1.7 329 19.4 102090 56
2003-08-20 08:02:46 51°9.36 2°35.75 1.8 321 19.4 102090 56
2003-08-20 08:02:50 51°9.36 2°35.75 1.8 328 19.5 102090 56
2003-08-20 08:02:54 51°9.36 2°35.74 1.9 331 19.5 102090 56
2003-08-20 08:03:00 51°9.36 2°35.74 2 333 19.5 102090 56
2003-08-20 08:03:06 51°9.37 2°35.74 1.8 340 19.5 102090 56
2003-08-20 08:03:10 51°9.37 2°35.74 1.6 350 19.5 102090 56
2003-08-20 08:03:14 51°9.37 2°35.74 1.6 347 19.5 102090 56
2003-08-20 08:03:20 51°9.37 2°35.74 1.3 345 19.5 102090 56
2003-08-20 08:03:24 51°9.37 2°35.74 0.7 345 19.5 102090 56
2003-08-20 08:03:30 51°9.37 2°35.74 1.5 345 19.6 102090 57
2003-08-20 08:03:34 51°9.37 2°35.74 1.5 348 19.6 102090 57
2003-08-20 08:03:40 51°9.38 2°35.74 1.4 348 19.6 102090 56
2003-08-20 08:03:44 51°9.38 2°35.74 1.3 343 19.6 102090 56
2003-08-20 08:03:50 51°9.38 2°35.74 1.5 344 19.6 102090 56
2003-08-20 08:03:54 51°9.38 2°35.74 1.4 345 19.6 102090 56
2003-08-20 08:04:00 51°9.38 2°35.74 1.3 339 19.6 102090 55
2003-08-20 08:04:06 51°9.38 2°35.74 1.2 336 19.6 102090 55
2003-08-20 08:04:10 51°9.38 2°35.74 1.3 330 19.7 102090 55
2003-08-20 08:04:14 51°9.39 2°35.74 1.3 330 19.7 102090 55
2003-08-20 08:04:20 51°9.39 2°35.74 1.3 330 19.7 102090 55
2003-08-20 08:04:24 51°9.39 2°35.74 1.3 330 19.7 102090 55
2003-08-20 08:04:30 51°9.39 2°35.74 1.3 328 19.7 102090 55
2003-08-20 08:04:34 51°9.39 2°35.74 1.4 327 19.7 102090 55
2003-08-20 08:04:40 51°9.39 2°35.74 1.2 326 19.7 102090 55
2003-08-20 08:04:46 51°9.39 2°35.74 1.1 324 19.7 102090 55
2003-08-20 08:04:50 51°9.39 2°35.74 1.3 324 19.7 102090 55
2003-08-20 08:04:54 51°9.4 2°35.74 1.1 322 19.7 102090 55
2003-08-20 08:05:00 51°9.4 2°35.74 1.1 326 19.8 102090 55
2003-08-20 08:05:06 51°9.4 2°35.74 1.1 326 19.8 102090 55
2003-08-20 08:05:10 51°9.4 2°35.74 0.9 330 19.8 102090 55
2003-08-20 08:05:14 51°9.4 2°35.74 0.8 338 19.8 102090 55
2003-08-20 08:05:20 51°9.4 2°35.74 1 338 19.8 102090 56
2003-08-20 08:05:26 51°9.41 2°35.74 1.1 338 19.8 102090 56
2003-08-20 08:05:30 51°9.41 2°35.74 1.1 337 19.8 102090 56
2003-08-20 08:05:34 51°9.41 2°35.74 1.3 331 19.8 102090 56
2003-08-20 08:05:40 51°9.41 2°35.75 1.1 337 19.8 102100 55
2003-08-20 08:05:46 51°9.41 2°35.75 1.3 338 19.8 102100 55
2003-08-20 08:05:50 51°9.42 2°35.75 1.1 339 19.9 102090 55
2003-08-20 08:05:54 51°9.42 2°35.75 1.2 338 19.9 102090 55
2003-08-20 08:06:00 51°9.42 2°35.75 1.3 338 19.9 102090 55
2003-08-20 08:06:06 51°9.42 2°35.75 1.2 341 19.9 102090 55
2003-08-20 08:06:10 51°9.43 2°35.75 1.3 343 19.9 102090 55
2003-08-20 08:06:14 51°9.43 2°35.75 1.4 343 19.9 102090 55
2003-08-20 08:06:20 51°9.43 2°35.76 1.7 340 19.9 102090 55
2003-08-20 08:06:24 51°9.43 2°35.76 1.6 337 19.9 102090 55
2003-08-20 08:06:30 51°9.44 2°35.76 1.5 337 19.9 102090 55
2003-08-20 08:06:34 51°9.44 2°35.76 1.7 337 19.9 102090 55
2003-08-20 08:06:40 51°9.44 2°35.77 1.7 329 20 102090 55
2003-08-20 08:06:44 51°9.44 2°35.77 1.6 339 20 102090 55
2003-08-20 08:06:50 51°9.45 2°35.77 1.9 341 20 102090 55
2003-08-20 08:06:54 51°9.45 2°35.77 2 341 20 102090 55
2003-08-20 08:07:00 51°9.45 2°35.77 1.8 338 20 102090 55
2003-08-20 08:07:06 51°9.45 2°35.78 1.8 335 20 102090 55
2003-08-20 08:07:10 51°9.46 2°35.78 1.8 338 20 102090 54
2003-08-20 08:07:14 51°9.46 2°35.78 2 338 20 102090 54
2003-08-20 08:07:20 51°9.46 2°35.78 1.8 338 20 102090 54
2003-08-20 08:07:26 51°9.46 2°35.79 1.7 339 20 102090 54
2003-08-20 08:07:30 51°9.47 2°35.79 1.8 337 20 102090 54
2003-08-20 08:07:34 51°9.47 2°35.79 1.7 340 20 102090 54
2003-08-20 08:07:40 51°9.47 2°35.79 2 343 20 102090 53
2003-08-20 08:07:46 51°9.47 2°35.8 1.9 346 20 102090 53
2003-08-20 08:07:50 51°9.48 2°35.8 1.8 346 20.1 102090 53
2003-08-20 08:07:54 51°9.48 2°35.8 1.5 340 20.1 102090 53
2003-08-20 08:08:00 51°9.48 2°35.81 1.4 339 20.1 102090 53
2003-08-20 08:08:04 51°9.48 2°35.81 1.5 337 20.1 102090 53
2003-08-20 08:08:10 51°9.48 2°35.81 1.4 337 20.1 102090 54
2003-08-20 08:08:14 51°9.49 2°35.81 1.4 337 20.1 102090 54
2003-08-20 08:08:20 51°9.49 2°35.82 1.3 338 20.1 102090 53
2003-08-20 08:08:26 51°9.49 2°35.82 1.5 329 20.1 102090 53
2003-08-20 08:08:30 51°9.49 2°35.82 1.8 332 20.1 102100 53
2003-08-20 08:08:34 51°9.49 2°35.83 1.7 330 20.1 102100 53
2003-08-20 08:08:40 51°9.5 2°35.83 1.7 326 20.1 102090 53
2003-08-20 08:08:46 51°9.5 2°35.83 1.6 332 20.1 102090 53
2003-08-20 08:08:50 51°9.5 2°35.84 1.6 336 20.1 102090 53
2003-08-20 08:08:54 51°9.5 2°35.84 1.6 333 20.1 102090 53
2003-08-20 08:09:00 51°9.5 2°35.84 1.6 330 20.2 102090 53
2003-08-20 08:09:04 51°9.5 2°35.84 1.6 328 20.2 102090 53
2003-08-20 08:09:10 51°9.51 2°35.85 1.6 330 20.2 102090 53
2003-08-20 08:09:14 51°9.51 2°35.85 1.6 330 20.2 102090 53
2003-08-20 08:09:20 51°9.51 2°35.85 1.3 330 20.2 102090 53
2003-08-20 08:09:26 51°9.51 2°35.86 1.2 329 20.2 102090 53
2003-08-20 08:09:30 51°9.51 2°35.86 1.5 333 20.2 102100 53
2003-08-20 08:09:34 51°9.51 2°35.86 1.4 330 20.2 102100 53
2003-08-20 08:09:40 51°9.52 2°35.87 1.1 323 20.2 102100 53
2003-08-20 08:09:46 51°9.52 2°35.87 1.1 323 20.2 102100 53
2003-08-20 08:09:50 51°9.52 2°35.87 0.9 323 20.3 102090 53
2003-08-20 08:09:54 51°9.52 2°35.88 0.9 323 20.3 102090 53
2003-08-20 08:10:00 51°9.52 2°35.88 0.9 323 20.3 102100 53
2003-08-20 08:10:04 51°9.52 2°35.88 0.8 323 20.3 102100 53
2003-08-20 08:10:10 51°9.52 2°35.89 1 323 20.3 102100 52
2003-08-20 08:10:14 51°9.52 2°35.89 1.2 322 20.3 102100 52
2003-08-20 08:10:20 51°9.52 2°35.89 1.3 322 20.3 102090 52
2003-08-20 08:10:26 51°9.53 2°35.9 1.3 322 20.3 102090 52
2003-08-20 08:10:30 51°9.53 2°35.9 1.3 322 20.3 102100 52
2003-08-20 08:10:34 51°9.53 2°35.9 1.2 322 20.3 102100 52
2003-08-20 08:10:40 51°9.53 2°35.9 1.1 322 20.3 102100 52
2003-08-20 08:10:46 51°9.53 2°35.91 0.9 322 20.3 102100 52
2003-08-20 08:10:50 51°9.53 2°35.91 0.8 322 20.4 102100 52
2003-08-20 08:10:54 51°9.53 2°35.91 1 322 20.4 102100 52
2003-08-20 08:11:00 51°9.53 2°35.92 0.8 321 20.4 102100 52
2003-08-20 08:11:06 51°9.53 2°35.92 0.8 319 20.4 102100 52
2003-08-20 08:11:10 51°9.53 2°35.92 0.8 319 20.4 102100 52
2003-08-20 08:11:14 51°9.53 2°35.92 0.8 319 20.4 102100 52
2003-08-20 08:11:20 51°9.53 2°35.93 0.7 319 20.4 102100 52
2003-08-20 08:11:26 51°9.53 2°35.93 0.8 316 20.4 102100 52
2003-08-20 08:11:30 51°9.54 2°35.93 0.8 227 20.5 102100 52
2003-08-20 08:11:34 51°9.54 2°35.94 0.9 227 20.5 102100 52
2003-08-20 08:11:40 51°9.54 2°35.94 0.7 314 20.5 102100 52
2003-08-20 08:11:46 51°9.54 2°35.94 0.8 314 20.5 102100 52
2003-08-20 08:11:50 51°9.54 2°35.95 0.8 314 20.5 102100 52
2003-08-20 08:11:54 51°9.54 2°35.95 0.8 314 20.5 102100 52
2003-08-20 08:12:00 51°9.54 2°35.95 0.7 313 20.5 102100 52
2003-08-20 08:12:04 51°9.54 2°35.96 0.7 313 20.5 102100 52
2003-08-20 08:12:10 51°9.54 2°35.96 0.6 314 20.6 102100 52
2003-08-20 08:12:14 51°9.54 2°35.96 0.6 313 20.6 102100 52
2003-08-20 08:12:20 51°9.54 2°35.97 0.6 313 20.6 102100 52
2003-08-20 08:12:26 51°9.54 2°35.97 0.5 313 20.6 102100 52
2003-08-20 08:12:30 51°9.54 2°35.97 0.5 313 20.6 102100 52
2003-08-20 08:12:34 51°9.54 2°35.97 0.5 313 20.6 102100 52
2003-08-20 08:12:40 51°9.54 2°35.98 0.5 313 20.6 102100 52
2003-08-20 08:12:46 51°9.54 2°35.98 0.5 313 20.6 102100 52
2003-08-20 08:12:50 51°9.54 2°35.98 0.5 313 20.7 102100 52
2003-08-20 08:12:54 51°9.54 2°35.99 0.5 313 20.7 102100 52
2003-08-20 08:13:00 51°9.54 2°35.99 0.4 313 20.7 102100 52
2003-08-20 08:13:04 51°9.54 2°35.99 0.4 314 20.7 102100 52
2003-08-20 08:13:10 51°9.54 2°35.99 0.3 313 20.7 102100 51
2003-08-20 08:13:14 51°9.54 2°36 0.3 313 20.7 102100 51
2003-08-20 08:13:20 51°9.54 2°36 0.2 313 20.7 102100 51
2003-08-20 08:13:26 51°9.54 2°36 0.2 313 20.7 102100 51
2003-08-20 08:13:30 51°9.54 2°36.01 0.2 313 20.8 102100 51
2003-08-20 08:13:34 51°9.54 2°36.01 0.2 313 20.8 102100 51
2003-08-20 08:13:40 51°9.54 2°36.01 0.2 313 20.8 102100 51
2003-08-20 08:13:44 51°9.54 2°36.01 0.3 314 20.8 102100 51
2003-08-20 08:13:50 51°9.54 2°36.02 0.2 313 20.9 102100 51
2003-08-20 08:13:54 51°9.54 2°36.02 0.1 314 20.9 102100 51
2003-08-20 08:14:00 51°9.53 2°36.02 0.1 313 20.9 102100 51
2003-08-20 08:14:06 51°9.53 2°36.03 0.1 313 20.9 102100 51
2003-08-20 08:14:10 51°9.53 2°36.03 0.3 312 20.9 102100 51
2003-08-20 08:14:14 51°9.53 2°36.03 0.5 312 20.9 102100 51
2003-08-20 08:14:20 51°9.53 2°36.03 0.5 310 20.9 102100 51
2003-08-20 08:14:26 51°9.53 2°36.04 0.5 310 20.9 102100 51
2003-08-20 08:14:30 51°9.53 2°36.04 0.4 309 21 102100 51
2003-08-20 08:14:34 51°9.53 2°36.04 0.4 309 21 102100 51
2003-08-20 08:14:40 51°9.53 2°36.04 0.4 309 21 102100 51
2003-08-20 08:14:46 51°9.53 2°36.05 0.4 309 21 102100 51
2003-08-20 08:14:50 51°9.53 2°36.05 0.4 309 21.1 102100 50
2003-08-20 08:14:54 51°9.53 2°36.05 0.3 309 21.1 102100 50
2003-08-20 08:15:00 51°9.53 2°36.05 0.3 308 21.1 102100 50
2003-08-20 08:15:06 51°9.52 2°36.06 0.1 308 21.1 102100 50
2003-08-20 08:15:10 51°9.52 2°36.06 0.1 309 21.1 102100 50
2003-08-20 08:15:14 51°9.52 2°36.06 0.1 308 21.1 102100 50
2003-08-20 08:15:20 51°9.52 2°36.06 0.3 308 21.2 102100 50
2003-08-20 08:15:26 51°9.52 2°36.07 0.4 309 21.2 102100 50
2003-08-20 08:15:30 51°9.52 2°36.07 0.4 308 21.2 102100 50
2003-08-20 08:15:34 51°9.52 2°36.07 0.4 308 21.2 102100 50
2003-08-20 08:15:40 51°9.52 2°36.07 0.3 308 21.2 102100 50
2003-08-20 08:15:46 51°9.52 2°36.07 0.4 308 21.2 102100 50
2003-08-20 08:15:50 51°9.52 2°36.08 0.3 308 21.3 102100 50
2003-08-20 08:15:54 51°9.52 2°36.08 0.3 308 21.3 102100 50
2003-08-20 08:16:00 51°9.51 2°36.08 0.3 308 21.3 102100 49
2003-08-20 08:16:04 51°9.51 2°36.08 0.2 308 21.3 102100 49
2003-08-20 08:16:10 51°9.51 2°36.08 0.1 308 21.3 102100 49
2003-08-20 08:16:14 51°9.51 2°36.09 0.1 308 21.3 102100 49
2003-08-20 08:16:20 51°9.51 2°36.09 0.1 308 21.3 102100 49
2003-08-20 08:16:26 51°9.51 2°36.09   308 21.3 102100 49
2003-08-20 08:16:30 51°9.51 2°36.09   308 21.4 102100 49
2003-08-20 08:16:34 51°9.5 2°36.09   308 21.4 102100 49
2003-08-20 08:16:40 51°9.5 2°36.1   308 21.4 102100 49
2003-08-20 08:16:46 51°9.5 2°36.1   308 21.4 102100 49
2003-08-20 08:16:50 51°9.5 2°36.1   308 21.4 102100 49
2003-08-20 08:16:54 51°9.5 2°36.1   308 21.4 102100 49
2003-08-20 08:17:00 51°9.5 2°36.1   308 21.4 102100 49
2003-08-20 08:17:06 51°9.5 2°36.1   308 21.4 102100 49
2003-08-20 08:17:10 51°9.49 2°36.1   308 21.4 102100 48
2003-08-20 08:17:14 51°9.49 2°36.11   308 21.4 102100 48
2003-08-20 08:17:20 51°9.49 2°36.11   308 21.4 102100 49
2003-08-20 08:17:26 51°9.49 2°36.11   308 21.4 102100 49
2003-08-20 08:17:30 51°9.49 2°36.11   308 21.5 102100 49
2003-08-20 08:17:34 51°9.49 2°36.11   308 21.5 102100 49
2003-08-20 08:17:40 51°9.48 2°36.11   308 21.5 102100 48
2003-08-20 08:17:44 51°9.48 2°36.11   308 21.5 102100 48
2003-08-20 08:17:50 51°9.48 2°36.11   308 21.5 102100 48
2003-08-20 08:17:54 51°9.48 2°36.11   308 21.5 102100 48
2003-08-20 08:18:00 51°9.48 2°36.11   308 21.6 102100 48
2003-08-20 08:18:06 51°9.47 2°36.11   308 21.6 102100 48
2003-08-20 08:18:10 51°9.47 2°36.11   308 21.6 102100 48
2003-08-20 08:18:14 51°9.47 2°36.11   308 21.6 102100 48
2003-08-20 08:18:20 51°9.47 2°36.11   308 21.6 102100 48
2003-08-20 08:18:26 51°9.47 2°36.11   309 21.6 102100 48
2003-08-20 08:18:30 51°9.47 2°36.11 0.1 309 21.7 102100 48
2003-08-20 08:18:34 51°9.46 2°36.11 0.1 310 21.7 102100 48
2003-08-20 08:18:40 51°9.46 2°36.11 0.2 309 21.7 102100 48
2003-08-20 08:18:46 51°9.46 2°36.11 0.2 310 21.7 102100 48
2003-08-20 08:18:50 51°9.46 2°36.11 0.2 310 21.8 102100 48
2003-08-20 08:18:54 51°9.46 2°36.11 0.2 310 21.8 102100 48
2003-08-20 08:19:00 51°9.46 2°36.11 0.2 310 21.8 102100 48
2003-08-20 08:19:04 51°9.45 2°36.11 0.1 310 21.8 102100 48
2003-08-20 08:19:10 51°9.45 2°36.11   310 21.8 102100 48
2003-08-20 08:19:14 51°9.45 2°36.11   309 21.8 102100 48
2003-08-20 08:19:20 51°9.45 2°36.1   307 21.9 102100 48
2003-08-20 08:19:26 51°9.45 2°36.1 0.1 308 21.9 102100 48
2003-08-20 08:19:30 51°9.45 2°36.1 0.7 144 21.9 102100 47
2003-08-20 08:19:34 51°9.44 2°36.1 0.8 125 21.9 102100 47
2003-08-20 08:19:40 51°9.44 2°36.1 0.8 94 21.9 102100 47
2003-08-20 08:19:46 51°9.44 2°36.1 0.9 94 21.9 102100 47
2003-08-20 08:19:50 51°9.44 2°36.1 0.8 94 21.9 102100 47
2003-08-20 08:19:54 51°9.44 2°36.1 0.7 94 21.9 102100 47
2003-08-20 08:20:00 51°9.44 2°36.09 0.7 94 22 102100 47
2003-08-20 08:20:04 51°9.43 2°36.09 0.8 94 22 102100 47
2003-08-20 08:20:10 51°9.43 2°36.09 0.9 94 22 102100 47
2003-08-20 08:20:14 51°9.43 2°36.09 0.9 94 22 102100 47
2003-08-20 08:20:20 51°9.43 2°36.09 0.8 94 21.9 102100 47
2003-08-20 08:20:26 51°9.43 2°36.08 1 94 21.9 102100 47
2003-08-20 08:20:30 51°9.43 2°36.08 0.8 91 21.9 102110 47
2003-08-20 08:20:34 51°9.43 2°36.08 0.9 85 21.9 102110 47
2003-08-20 08:20:40 51°9.42 2°36.08 0.9 81 21.9 102100 47
2003-08-20 08:20:46 51°9.42 2°36.08 0.9 81 21.9 102100 47
2003-08-20 08:20:50 51°9.42 2°36.07 0.8 82 21.9 102100 47
2003-08-20 08:20:54 51°9.42 2°36.07 0.8 81 21.9 102100 47
2003-08-20 08:21:00 51°9.42 2°36.07 0.9 81 21.8 102110 47
2003-08-20 08:21:06 51°9.42 2°36.07 1 81 21.8 102110 47
2003-08-20 08:21:10 51°9.42 2°36.06 1.2 68 21.8 102100 47
2003-08-20 08:21:14 51°9.42 2°36.06 1.1 66 21.8 102100 47
2003-08-20 08:21:20 51°9.42 2°36.06 1.1 66 21.7 102110 47
2003-08-20 08:21:26 51°9.42 2°36.06 1.5 42 21.7 102110 47
2003-08-20 08:21:30 51°9.41 2°36.05 1.5 43 21.6 102100 48
2003-08-20 08:21:34 51°9.41 2°36.05 2 41 21.6 102100 48
2003-08-20 08:21:40 51°9.41 2°36.05 2 45 21.6 102110 48
2003-08-20 08:21:44 51°9.41 2°36.05 1.9 58 21.6 102110 48
2003-08-20 08:21:50 51°9.41 2°36.04 1.9 63 21.5 102100 49
2003-08-20 08:21:54 51°9.41 2°36.04 2 64 21.5 102100 49
2003-08-20 08:22:00 51°9.41 2°36.04 2.1 59 21.4 102100 49
2003-08-20 08:22:06 51°9.41 2°36.03 2.1 43 21.4 102100 49
2003-08-20 08:22:10 51°9.41 2°36.03 2 42 21.4 102100 50
2003-08-20 08:22:14 51°9.41 2°36.03 1.9 42 21.4 102100 50
2003-08-20 08:22:20 51°9.41 2°36.03 1.8 41 21.3 102110 50
2003-08-20 08:22:26 51°9.41 2°36.02 1.8 41 21.3 102110 50
2003-08-20 08:22:30 51°9.41 2°36.02 1.7 41 21.2 102110 51
2003-08-20 08:22:34 51°9.41 2°36.02 1.6 41 21.2 102110 51
2003-08-20 08:22:40 51°9.41 2°36.02 1.8 44 21.1 102100 50
2003-08-20 08:22:46 51°9.41 2°36.01 1.7 37 21.1 102100 50
2003-08-20 08:22:50 51°9.41 2°36.01 1.8 30 21 102110 51
2003-08-20 08:22:54 51°9.41 2°36.01 1.9 28 21 102110 51
2003-08-20 08:23:00 51°9.41 2°36 1.8 27 20.9 102110 50
2003-08-20 08:23:04 51°9.41 2°36 1.8 27 20.9 102110 50
2003-08-20 08:23:10 51°9.41 2°36 1.7 25 20.8 102110 51
2003-08-20 08:23:14 51°9.41 2°36 1.7 20 20.8 102110 51
2003-08-20 08:23:20 51°9.41 2°35.99 1.7 19 20.7 102110 51
2003-08-20 08:23:26 51°9.41 2°35.99 1.8 17 20.7 102110 51
2003-08-20 08:23:30 51°9.41 2°35.99 2.6 9 20.7 102110 51
2003-08-20 08:23:34 51°9.41 2°35.98 2.9 8 20.7 102110 51
2003-08-20 08:23:40 51°9.41 2°35.97 3.2 8 20.6 102110 51
2003-08-20 08:23:46 51°9.42 2°35.96 4 4 20.6 102110 51
2003-08-20 08:23:50 51°9.42 2°35.96 4.6 4 20.6 102110 51
2003-08-20 08:23:54 51°9.42 2°35.95 4.8 2 20.6 102110 51
2003-08-20 08:24:00 51°9.43 2°35.93 4.8 4 20.5 102110 51
2003-08-20 08:24:04 51°9.44 2°35.92 5.2 4 20.5 102110 51
2003-08-20 08:24:10 51°9.45 2°35.91 6 5 20.4 102110 51
2003-08-20 08:24:14 51°9.45 2°35.9 5.9 6 20.4 102110 51
2003-08-20 08:24:20 51°9.46 2°35.88 6.6 5 20.4 102110 51
2003-08-20 08:24:26 51°9.47 2°35.86 6.7 5 20.4 102110 51
2003-08-20 08:24:30 51°9.48 2°35.85 7.4 4 20.3 102100 51
2003-08-20 08:24:34 51°9.49 2°35.83 7.5 5 20.3 102100 51
2003-08-20 08:24:40 51°9.51 2°35.81 7.7 5 20.3 102100 52
2003-08-20 08:24:46 51°9.52 2°35.79 7.4 6 20.3 102100 52
2003-08-20 08:24:50 51°9.53 2°35.78 7.8 4 20.2 102100 52
2003-08-20 08:24:54 51°9.54 2°35.77 7.5 3 20.2 102100 52
2003-08-20 08:25:00 51°9.56 2°35.74 7.5 5 20.2 102100 52
2003-08-20 08:25:06 51°9.58 2°35.72 7.6 6 20.2 102100 52
2003-08-20 08:25:10 51°9.59 2°35.71 7.4 6 20.1 102100 52
2003-08-20 08:25:14 51°9.6 2°35.7 7.4   20.1 102100 52
2003-08-20 08:25:20 51°9.62 2°35.68 7.9 6 20.1 102100 52
2003-08-20 08:25:26 51°9.64 2°35.66 7.3 7 20.1 102100 52
2003-08-20 08:25:30 51°9.65 2°35.65 7.3 6 20 102100 53
2003-08-20 08:25:34 51°9.66 2°35.64 7.7 5 20 102100 53
2003-08-20 08:25:40 51°9.68 2°35.62 7.6 4 20 102100 52
2003-08-20 08:25:46 51°9.7 2°35.6 7.8 3 20 102100 52
2003-08-20 08:25:50 51°9.71 2°35.59 8.5 9 20 102100 53
2003-08-20 08:25:54 51°9.73 2°35.57 8.4 6 20 102100 53
2003-08-20 08:26:00 51°9.75 2°35.56 9.1 7 19.9 102100 53
2003-08-20 08:26:06 51°9.77 2°35.54 9.1 6 19.9 102100 53
2003-08-20 08:26:10 51°9.78 2°35.52 8.8 4 19.9 102100 54
2003-08-20 08:26:14 51°9.79 2°35.51 8.8 5 19.9 102100 54
2003-08-20 08:26:20 51°9.81 2°35.49 8.9 3 19.9 102100 54
2003-08-20 08:26:26 51°9.83 2°35.47 8.8 1 19.9 102100 54
2003-08-20 08:26:30 51°9.84 2°35.46 8.4 3 19.9 102100 54
2003-08-20 08:26:34 51°9.86 2°35.45 8.5 4 19.9 102100 54
2003-08-20 08:26:40 51°9.88 2°35.43 8.3 5 19.8 102100 54
2003-08-20 08:26:46 51°9.9 2°35.41 8.7 6 19.8 102100 54
2003-08-20 08:26:50 51°9.91 2°35.4 7.9 7 19.8 102100 54
2003-08-20 08:26:54 51°9.92 2°35.39 8 7 19.8 102100 54
2003-08-20 08:27:00 51°9.94 2°35.37 8 5 19.8 102100 53
2003-08-20 08:27:04 51°9.96 2°35.35 8.3 5 19.8 102100 53
2003-08-20 08:27:10 51°9.98 2°35.34 8.6 2 19.8 102100 53
2003-08-20 08:27:14 51°9.99 2°35.32 8.2 3 19.8 102100 53
2003-08-20 08:27:20 51°10.01 2°35.3 8.7 6 19.8 102100 53
2003-08-20 08:27:26 51°10.03 2°35.28 9.1 360 19.8 102100 53
2003-08-20 08:27:30 51°10.04 2°35.27 8.8 2 19.7 102100 54
2003-08-20 08:27:34 51°10.06 2°35.26 9.1 7 19.7 102100 54
2003-08-20 08:27:40 51°10.08 2°35.24 9 6 19.7 102100 55
2003-08-20 08:27:46 51°10.1 2°35.23 8.8 4 19.7 102100 55
2003-08-20 08:27:50 51°10.11 2°35.22 8.4 2 19.7 102100 56
2003-08-20 08:27:54 51°10.12 2°35.21 8.3 2 19.7 102100 56
2003-08-20 08:28:00 51°10.15 2°35.2 8.1 360 19.7 102100 55
2003-08-20 08:28:04 51°10.16 2°35.19 8.4 358 19.7 102100 55
2003-08-20 08:28:10 51°10.18 2°35.18 8.3 356 19.7 102100 55
2003-08-20 08:28:14 51°10.2 2°35.18 8.1 357 19.7 102100 55
2003-08-20 08:28:20 51°10.22 2°35.18 8.2 355 19.7 102100 55
2003-08-20 08:28:26 51°10.24 2°35.18 7.8 355 19.7 102100 55
2003-08-20 08:28:30 51°10.26 2°35.18 8.6 350 19.7 102100 55
2003-08-20 08:28:34 51°10.27 2°35.18 8.4 353 19.7 102100 55
2003-08-20 08:28:40 51°10.3 2°35.19 8.3 355 19.7 102110 55
2003-08-20 08:28:46 51°10.32 2°35.2 7.5 354 19.7 102110 55
2003-08-20 08:28:50 51°10.33 2°35.21 7.5 353 19.7 102100 57
2003-08-20 08:28:54 51°10.35 2°35.22 7.6 352 19.7 102100 57
2003-08-20 08:29:00 51°10.37 2°35.23 7.4 352 19.7 102100 56
2003-08-20 08:29:06 51°10.38 2°35.25 7.4 347 19.7 102100 56
2003-08-20 08:29:10 51°10.4 2°35.27 7.7 351 19.7 102110 55
2003-08-20 08:29:14 51°10.41 2°35.28 7.4 350 19.7 102110 55
2003-08-20 08:29:20 51°10.42 2°35.31 7.1 349 19.7 102110 55
2003-08-20 08:29:26 51°10.44 2°35.33 6.9 349 19.7 102110 55
2003-08-20 08:29:30 51°10.45 2°35.35 7.4 351 19.7 102110 56
2003-08-20 08:29:34 51°10.46 2°35.36 7.5 354 19.7 102110 56
2003-08-20 08:29:40 51°10.48 2°35.39 7.3 352 19.7 102110 56
2003-08-20 08:29:46 51°10.49 2°35.41 7.1 352 19.7 102110 56
2003-08-20 08:29:50 51°10.5 2°35.43 6.9 352 19.7 102110 56
2003-08-20 08:29:54 51°10.51 2°35.45 7 352 19.7 102110 56
2003-08-20 08:30:00 51°10.53 2°35.47 7.1 349 19.7 102110 55
2003-08-20 08:30:04 51°10.54 2°35.49 6.9 351 19.7 102110 55
2003-08-20 08:30:10 51°10.55 2°35.52 7.2 350 19.7 102110 55
2003-08-20 08:30:14 51°10.57 2°35.53 7.1 347 19.7 102110 55
2003-08-20 08:30:20 51°10.58 2°35.56 6.8 349 19.7 102110 56
2003-08-20 08:30:26 51°10.6 2°35.58 7.3 344 19.7 102110 56
2003-08-20 08:30:30 51°10.61 2°35.6 7.7 351 19.7 102110 57
2003-08-20 08:30:34 51°10.62 2°35.62 7.5 353 19.7 102110 57
2003-08-20 08:30:40 51°10.63 2°35.64 7.5 353 19.8 102100 57
2003-08-20 08:30:46 51°10.65 2°35.67 7.7 354 19.8 102100 57
2003-08-20 08:30:50 51°10.66 2°35.69 7.8 348 19.8 102110 56
2003-08-20 08:30:54 51°10.67 2°35.7 7.8 351 19.8 102110 56
2003-08-20 08:31:00 51°10.69 2°35.73 7.9 351 19.8 102110 56
2003-08-20 08:31:04 51°10.7 2°35.75 7.7 351 19.8 102110 56
2003-08-20 08:31:10 51°10.71 2°35.77 7.2 353 19.8 102110 57
2003-08-20 08:31:14 51°10.72 2°35.79 7.3 351 19.8 102110 57
2003-08-20 08:31:20 51°10.74 2°35.82 7.4 354 19.8 102110 56
2003-08-20 08:31:26 51°10.75 2°35.84 7.6 353 19.8 102110 56
2003-08-20 08:31:30 51°10.77 2°35.86 7.3 351 19.8 102110 55
2003-08-20 08:31:34 51°10.78 2°35.88 7.4 353 19.8 102110 55
2003-08-20 08:31:40 51°10.79 2°35.9 7.1 352 19.8 102110 56
2003-08-20 08:31:46 51°10.81 2°35.93 6.8 355 19.8 102110 56
2003-08-20 08:31:50 51°10.82 2°35.94 7 354 19.8 102110 56
2003-08-20 08:31:54 51°10.83 2°35.96 7.3 351 19.8 102110 56
2003-08-20 08:32:00 51°10.84 2°35.99 7.8 352 19.8 102110 55
2003-08-20 08:32:06 51°10.86 2°36.01 7.7 350 19.8 102110 55
2003-08-20 08:32:10 51°10.87 2°36.03 8.2 347 19.7 102110 55
2003-08-20 08:32:14 51°10.88 2°36.05 7.9 347 19.7 102110 55
2003-08-20 08:32:20 51°10.9 2°36.07 7.7 349 19.8 102110 56
2003-08-20 08:32:26 51°10.91 2°36.1 7.8 349 19.8 102110 56
2003-08-20 08:32:30 51°10.92 2°36.12 7.2 350 19.7 102110 56
2003-08-20 08:32:34 51°10.93 2°36.13 6.9 351 19.7 102110 56
2003-08-20 08:32:40 51°10.95 2°36.16 7.2 351 19.7 102110 55
2003-08-20 08:32:46 51°10.96 2°36.19 7.3 350 19.7 102110 55
2003-08-20 08:32:50 51°10.98 2°36.2 7.1 351 19.8 102110 55
2003-08-20 08:32:54 51°10.99 2°36.22 7.2 350 19.8 102110 55
2003-08-20 08:33:00 51°11 2°36.25 7 349 19.7 102110 55
2003-08-20 08:33:06 51°11.02 2°36.27 7.2 356 19.7 102110 55
2003-08-20 08:33:10 51°11.03 2°36.29 7.3 352 19.7 102110 55
2003-08-20 08:33:14 51°11.04 2°36.31 7.1 351 19.7 102110 55
2003-08-20 08:33:20 51°11.05 2°36.33 7.6 351 19.8 102110 55
2003-08-20 08:33:24 51°11.06 2°36.35 7.2 351 19.8 102110 55
2003-08-20 08:33:30 51°11.08 2°36.38 7.2 352 19.7 102110 55
2003-08-20 08:33:34 51°11.09 2°36.39 7.1 352 19.7 102110 55
2003-08-20 08:33:40 51°11.11 2°36.42 6.6 349 19.7 102110 55
2003-08-20 08:33:46 51°11.12 2°36.45 7.3 348 19.7 102110 55
2003-08-20 08:33:50 51°11.13 2°36.46 7.7 349 19.7 102110 55
2003-08-20 08:33:54 51°11.14 2°36.48 8.2 352 19.7 102110 55
2003-08-20 08:34:00 51°11.16 2°36.51 8.1 352 19.7 102110 55
2003-08-20 08:34:06 51°11.17 2°36.53 8.5 352 19.7 102110 55
2003-08-20 08:34:10 51°11.18 2°36.55 7.8 352 19.7 102110 55
2003-08-20 08:34:14 51°11.19 2°36.57 7.6 351 19.7 102110 55
2003-08-20 08:34:20 51°11.21 2°36.59 7.1 348 19.8 102110 55
2003-08-20 08:34:24 51°11.22 2°36.61 7.4 348 19.8 102110 55
2003-08-20 08:34:30 51°11.24 2°36.63 6.6 349 19.7 102110 55
2003-08-20 08:34:34 51°11.25 2°36.65 6.9 351 19.7 102110 55
2003-08-20 08:34:40 51°11.26 2°36.68 6.5 349 19.7 102110 55
2003-08-20 08:34:46 51°11.28 2°36.7 6.8 353 19.7 102110 55
2003-08-20 08:34:50 51°11.29 2°36.72 6.5 351 19.7 102110 55
2003-08-20 08:34:54 51°11.3 2°36.74 6.9 349 19.7 102110 55
2003-08-20 08:35:00 51°11.31 2°36.76 7.6 346 19.8 102110 55
2003-08-20 08:35:04 51°11.33 2°36.78 8.2 346 19.8 102110 55
2003-08-20 08:35:10 51°11.34 2°36.81 8.1 347 19.7 102110 55
2003-08-20 08:35:14 51°11.35 2°36.82 7.7 348 19.7 102110 55
2003-08-20 08:35:20 51°11.37 2°36.85 7.7 350 19.8 102110 56
2003-08-20 08:35:26 51°11.38 2°36.87 7.6 347 19.8 102110 56
2003-08-20 08:35:30 51°11.39 2°36.89 7.3 347 19.8 102100 56
2003-08-20 08:35:34 51°11.4 2°36.91 6.9 348 19.8 102100 56
2003-08-20 08:35:40 51°11.42 2°36.93 6.9 350 19.8 102100 56
2003-08-20 08:35:46 51°11.44 2°36.96 7.1 352 19.8 102100 56
2003-08-20 08:35:50 51°11.45 2°36.98 7 351 19.8 102110 56
2003-08-20 08:35:54 51°11.46 2°37 7 350 19.8 102110 56
2003-08-20 08:36:00 51°11.47 2°37.02 8 350 19.8 102110 55
2003-08-20 08:36:06 51°11.49 2°37.05 7.3 355 19.8 102110 55
2003-08-20 08:36:10 51°11.5 2°37.06 7.2 356 19.8 102110 56
2003-08-20 08:36:14 51°11.51 2°37.08 7.4 354 19.8 102110 56
2003-08-20 08:36:20 51°11.53 2°37.11 7.2 354 19.8 102110 56
2003-08-20 08:36:26 51°11.54 2°37.13 7.5 356 19.8 102110 56
2003-08-20 08:36:30 51°11.55 2°37.15 8.1 349 19.8 102110 55
2003-08-20 08:36:34 51°11.56 2°37.17 7.4 349 19.8 102110 55
2003-08-20 08:36:40 51°11.58 2°37.19 7.6 349 19.8 102110 55
2003-08-20 08:36:46 51°11.59 2°37.22 7.1 348 19.8 102110 55
2003-08-20 08:36:50 51°11.61 2°37.24 6.8 349 19.8 102110 55
2003-08-20 08:36:54 51°11.62 2°37.25 6.9 351 19.8 102110 55
2003-08-20 08:37:00 51°11.63 2°37.28 6.9 352 19.7 102110 55
2003-08-20 08:37:06 51°11.65 2°37.31 6.6 354 19.7 102110 55
2003-08-20 08:37:10 51°11.66 2°37.32 6.5 351 19.7 102110 55
2003-08-20 08:37:14 51°11.67 2°37.34 6.8 352 19.7 102110 55
2003-08-20 08:37:20 51°11.68 2°37.37 7 352 19.7 102110 55
2003-08-20 08:37:24 51°11.69 2°37.38 6.5 352 19.7 102110 55
2003-08-20 08:37:30 51°11.71 2°37.41 6.9 351 19.7 102110 55
2003-08-20 08:37:34 51°11.72 2°37.43 6.3 355 19.7 102110 55
2003-08-20 08:37:40 51°11.74 2°37.45 6.3 348 19.7 102110 56
2003-08-20 08:37:46 51°11.75 2°37.48 6.9 354 19.7 102110 56
2003-08-20 08:37:50 51°11.76 2°37.5 7.7 350 19.7 102110 55
2003-08-20 08:37:54 51°11.77 2°37.51 7.7 352 19.7 102110 55
2003-08-20 08:38:00 51°11.79 2°37.54 7 352 19.7 102110 56
2003-08-20 08:38:06 51°11.8 2°37.57 7.3 352 19.7 102110 56
2003-08-20 08:38:10 51°11.81 2°37.58 7.1 354 19.8 102110 56
2003-08-20 08:38:14 51°11.82 2°37.6 6.7 353 19.8 102110 56
2003-08-20 08:38:20 51°11.84 2°37.63 7.1 352 19.8 102110 56
2003-08-20 08:38:26 51°11.86 2°37.65 7 351 19.8 102110 56
2003-08-20 08:38:30 51°11.87 2°37.67 6.6 352 19.8 102110 55
2003-08-20 08:38:34 51°11.88 2°37.69 6.7 354 19.8 102110 55
2003-08-20 08:38:40 51°11.89 2°37.71 6.8 352 19.8 102110 55
2003-08-20 08:38:44 51°11.9 2°37.73 6.7 349 19.8 102110 55
2003-08-20 08:38:50 51°11.92 2°37.76 6.8 351 19.8 102110 55
2003-08-20 08:38:54 51°11.93 2°37.77 7.2 352 19.8 102110 55
2003-08-20 08:39:00 51°11.95 2°37.8 7 350 19.8 102110 55
2003-08-20 08:39:04 51°11.96 2°37.82 7.1 348 19.8 102110 55
2003-08-20 08:39:10 51°11.97 2°37.84 7 352 19.8 102110 56
2003-08-20 08:39:14 51°11.98 2°37.86 7.6 349 19.8 102110 56
2003-08-20 08:39:20 51°12 2°37.89 7.3 354 19.8 102110 56
2003-08-20 08:39:26 51°12.01 2°37.91 6.8 356 19.8 102110 56
2003-08-20 08:39:30 51°12.02 2°37.93 6.8 350 19.8 102110 56
2003-08-20 08:39:34 51°12.04 2°37.95 6.5 354 19.8 102110 56
2003-08-20 08:39:40 51°12.05 2°37.97 6.7 354 19.8 102110 56
2003-08-20 08:39:46 51°12.07 2°37.99 6.4 357 19.8 102110 56
2003-08-20 08:39:50 51°12.08 2°38.01 6.5 354 19.8 102110 55
2003-08-20 08:39:54 51°12.09 2°38.02 6.9 359 19.8 102110 55
2003-08-20 08:40:00 51°12.11 2°38.04 6.9 357 19.8 102110 55
2003-08-20 08:40:06 51°12.13 2°38.06 6.7 357 19.8 102110 55
2003-08-20 08:40:10 51°12.15 2°38.07 7.4 356 19.8 102110 56
2003-08-20 08:40:14 51°12.16 2°38.08 7.6 356 19.8 102110 56
2003-08-20 08:40:20 51°12.18 2°38.1 7.3 357 19.8 102110 55
2003-08-20 08:40:26 51°12.2 2°38.12 7.4 357 19.8 102110 55
2003-08-20 08:40:30 51°12.21 2°38.13 7.7 354 19.8 102110 55
2003-08-20 08:40:34 51°12.23 2°38.14 7.9 359 19.8 102110 55
2003-08-20 08:40:40 51°12.25 2°38.15 7.6 1 19.8 102120 55
2003-08-20 08:40:46 51°12.27 2°38.17 7.5 358 19.8 102120 55
2003-08-20 08:40:50 51°12.28 2°38.18 7.4 358 19.8 102110 55
2003-08-20 08:40:54 51°12.3 2°38.18 7.7 2 19.8 102110 55
2003-08-20 08:41:00 51°12.32 2°38.2 7.8 358 19.8 102110 55
2003-08-20 08:41:06 51°12.34 2°38.21 8.6 357 19.8 102110 55
2003-08-20 08:41:10 51°12.35 2°38.22 7.5 358 19.7 102110 56
2003-08-20 08:41:14 51°12.37 2°38.23 7.9 3 19.7 102110 56
2003-08-20 08:41:20 51°12.39 2°38.24 7.9 2 19.7 102110 56
2003-08-20 08:41:26 51°12.41 2°38.26 8.2 355 19.7 102110 56
2003-08-20 08:41:30 51°12.42 2°38.27 8.3 356 19.7 102110 56
2003-08-20 08:41:34 51°12.44 2°38.27 8.5 352 19.7 102110 56
2003-08-20 08:41:40 51°12.46 2°38.29 8.5 354 19.7 102110 56
2003-08-20 08:41:46 51°12.48 2°38.3 8.7 354 19.7 102110 56
2003-08-20 08:41:50 51°12.49 2°38.31 8.9 358 19.7 102110 56
2003-08-20 08:41:54 51°12.51 2°38.32 8.7 353 19.7 102110 56
2003-08-20 08:42:00 51°12.53 2°38.33 7.9 356 19.7 102100 56
2003-08-20 08:42:04 51°12.54 2°38.34 8.1 355 19.7 102100 56
2003-08-20 08:42:10 51°12.56 2°38.35 7.9 354 19.7 102100 56
2003-08-20 08:42:14 51°12.58 2°38.35 7.6 352 19.7 102100 56
2003-08-20 08:42:20 51°12.6 2°38.37 7.6 353 19.7 102110 55
2003-08-20 08:42:26 51°12.62 2°38.38 7.8 353 19.7 102110 55
2003-08-20 08:42:30 51°12.64 2°38.39 7.3 353 19.7 102110 55
2003-08-20 08:42:34 51°12.65 2°38.4 7.2 352 19.7 102110 55
2003-08-20 08:42:40 51°12.67 2°38.41 7.5 355 19.7 102110 55
2003-08-20 08:42:46 51°12.69 2°38.42 7.4 356 19.7 102110 55
2003-08-20 08:42:50 51°12.71 2°38.43 7.6 355 19.7 102110 55
2003-08-20 08:42:54 51°12.72 2°38.44 7.4 351 19.7 102110 55
2003-08-20 08:43:00 51°12.74 2°38.45 7.8 348 19.7 102110 56
2003-08-20 08:43:06 51°12.76 2°38.46 7.6 348 19.7 102110 56
2003-08-20 08:43:10 51°12.78 2°38.47 7.2 348 19.7 102110 55
2003-08-20 08:43:14 51°12.79 2°38.47 7.2 344 19.7 102110 55
2003-08-20 08:43:20 51°12.81 2°38.49 7.4 347 19.7 102110 56
2003-08-20 08:43:26 51°12.83 2°38.5 7.2 347 19.7 102110 56
2003-08-20 08:43:30 51°12.85 2°38.51 7.6 357 19.6 102110 56
2003-08-20 08:43:34 51°12.86 2°38.52 7.7 353 19.6 102110 56
2003-08-20 08:43:40 51°12.88 2°38.53 7.6 355 19.6 102110 55
2003-08-20 08:43:46 51°12.91 2°38.54 7.8 357 19.6 102110 55
2003-08-20 08:43:50 51°12.92 2°38.55 8.1 1 19.6 102110 56
2003-08-20 08:43:54 51°12.93 2°38.56 8.4 358 19.6 102110 56
2003-08-20 08:44:00 51°12.96 2°38.57 8.4 355 19.7 102100 57
2003-08-20 08:44:06 51°12.98 2°38.58 8 358 19.7 102100 57
2003-08-20 08:44:10 51°12.99 2°38.59 8.3 358 19.7 102110 57
2003-08-20 08:44:14 51°13 2°38.6 8.2 359 19.7 102110 57
2003-08-20 08:44:20 51°13.03 2°38.61 8.6 354 19.6 102110 56
2003-08-20 08:44:26 51°13.05 2°38.62 8.6 358 19.6 102110 56
2003-08-20 08:44:30 51°13.06 2°38.63 8.4 355 19.6 102110 56
2003-08-20 08:44:34 51°13.08 2°38.64 8.1 356 19.6 102110 56
2003-08-20 08:44:40 51°13.1 2°38.65 8.4 355 19.6 102110 56
2003-08-20 08:44:46 51°13.12 2°38.66 7.9 357 19.6 102110 56
2003-08-20 08:44:50 51°13.13 2°38.67 7.6 356 19.6 102110 57
2003-08-20 08:44:54 51°13.15 2°38.68 8 356 19.6 102110 57
2003-08-20 08:45:00 51°13.17 2°38.69 8.3 358 19.6 102100 57
2003-08-20 08:45:04 51°13.18 2°38.7 7.9 358 19.6 102100 57
2003-08-20 08:45:10 51°13.2 2°38.71 7.6 358 19.7 102110 56
2003-08-20 08:45:14 51°13.22 2°38.72 7.6 357 19.7 102110 56
2003-08-20 08:45:20 51°13.24 2°38.73 7.6 355 19.6 102110 56
2003-08-20 08:45:26 51°13.26 2°38.74 7 358 19.6 102110 56
2003-08-20 08:45:30 51°13.27 2°38.75 6.8 359 19.6 102110 56
2003-08-20 08:45:34 51°13.29 2°38.76 7.1 359 19.6 102110 56
2003-08-20 08:45:40 51°13.31 2°38.77 7.4 357 19.6 102110 56
2003-08-20 08:45:46 51°13.33 2°38.78 7.1 356 19.6 102110 56
2003-08-20 08:45:50 51°13.34 2°38.79 7.6 355 19.6 102110 56
2003-08-20 08:45:54 51°13.36 2°38.8 8 356 19.6 102110 56
2003-08-20 08:46:00 51°13.38 2°38.81 8.4 356 19.6 102110 56
2003-08-20 08:46:04 51°13.39 2°38.82 8.3 355 19.6 102110 56
2003-08-20 08:46:10 51°13.42 2°38.83 8.3 355 19.6 102110 57
2003-08-20 08:46:14 51°13.43 2°38.84 7.9 355 19.6 102110 57
2003-08-20 08:46:20 51°13.45 2°38.85 7.8 352 19.6 102110 57
2003-08-20 08:46:26 51°13.47 2°38.86 7.5 354 19.6 102110 57
2003-08-20 08:46:30 51°13.49 2°38.87 7.4 355 19.6 102110 56
2003-08-20 08:46:34 51°13.5 2°38.88 7.7 355 19.6 102110 56
2003-08-20 08:46:40 51°13.52 2°38.89 7.8 352 19.6 102110 56
2003-08-20 08:46:46 51°13.54 2°38.9 7.9 350 19.6 102110 56
2003-08-20 08:46:50 51°13.56 2°38.91 7.9 352 19.6 102110 56
2003-08-20 08:46:54 51°13.57 2°38.92 7.4 350 19.6 102110 56
2003-08-20 08:47:00 51°13.59 2°38.92 7.6 353 19.6 102100 56
2003-08-20 08:47:06 51°13.62 2°38.93 7.2 350 19.6 102100 56
2003-08-20 08:47:10 51°13.63 2°38.94 7.9 351 19.6 102110 56
2003-08-20 08:47:14 51°13.65 2°38.94 8 352 19.6 102110 56
2003-08-20 08:47:20 51°13.67 2°38.95 8.1 351 19.6 102110 56
2003-08-20 08:47:26 51°13.69 2°38.96 8 351 19.6 102110 56
2003-08-20 08:47:30 51°13.71 2°38.96 8.5 354 19.6 102110 56
2003-08-20 08:47:34 51°13.72 2°38.96 8.4 351 19.6 102110 56
2003-08-20 08:47:40 51°13.74 2°38.96 7.9 352 19.6 102100 56
2003-08-20 08:47:46 51°13.77 2°38.96 7.8 353 19.6 102100 56
2003-08-20 08:47:50 51°13.78 2°38.96 7.7 353 19.6 102100 57
2003-08-20 08:47:54 51°13.8 2°38.96 7.9 353 19.6 102100 57
2003-08-20 08:48:00 51°13.82 2°38.97 7.9 352 19.6 102100 57
2003-08-20 08:48:06 51°13.84 2°38.97 8 354 19.6 102100 57
2003-08-20 08:48:10 51°13.86 2°38.97 7.6 355 19.6 102110 56
2003-08-20 08:48:14 51°13.87 2°38.97 9   19.6 102110 56
2003-08-20 08:48:20 51°13.89 2°38.97 8.9 354 19.6 102110 56
2003-08-20 08:48:26 51°13.92 2°38.97 9.4 357 19.6 102110 56
2003-08-20 08:48:30 51°13.93 2°38.97 9 353 19.6 102100 57
2003-08-20 08:48:34 51°13.95 2°38.97 9.2 358 19.6 102100 57
2003-08-20 08:48:40 51°13.97 2°38.96 9.3 360 19.6 102110 58
2003-08-20 08:48:46 51°13.99 2°38.96 8.8 358 19.6 102110 58
2003-08-20 08:48:50 51°14.01 2°38.95 9.1 3 19.6 102110 59
2003-08-20 08:48:54 51°14.02 2°38.94 9.2 358 19.6 102110 59
2003-08-20 08:49:00 51°14.04 2°38.93 9.1 1 19.6 102100 58
2003-08-20 08:49:04 51°14.05 2°38.92 8.9 1 19.6 102100 58
2003-08-20 08:49:10 51°14.07 2°38.9 9.1 2 19.6 102100 58
2003-08-20 08:49:14 51°14.09 2°38.89 9.2 4 19.6 102100 58
2003-08-20 08:49:20 51°14.1 2°38.87 8.6 8 19.6 102100 58
2003-08-20 08:49:26 51°14.12 2°38.84 8.7 6 19.6 102100 58
2003-08-20 08:49:30 51°14.13 2°38.83 8.9 7 19.6 102100 58
2003-08-20 08:49:34 51°14.14 2°38.81 8.7 3 19.6 102100 58
2003-08-20 08:49:40 51°14.16 2°38.78 9 7 19.6 102100 58
2003-08-20 08:49:46 51°14.18 2°38.76 9.1 7 19.6 102100 58
2003-08-20 08:49:50 51°14.18 2°38.74 9.1 10 19.6 102110 58
2003-08-20 08:49:54 51°14.19 2°38.72 8.9 5 19.6 102110 58